Overview Statistics Trail Chart Weather Telemetry Raw packets
 

This is the latest recevied weather packets stored in our database for station/object HP3ICC-22. If no packets are shown the sender has not sent any weather packets the latest 10 day(s).

<< 27 28 29 30 31 32 33 >>
Time Temp. Humidity Pressure Rain* Wind** Luminosity Snow
1777307865 15° C 62% 1014 hPa 0 mm - - -
1777306724 14.44° C 64% 1015 hPa 0 mm - - -
1777306664 14.44° C 64% 1015 hPa 0 mm - - -
1777305524 14.44° C 63% 1015 hPa 0 mm - - -
1777305464 14.44° C 63% 1015 hPa 0 mm - - -
1777304323 14.44° C 65% 1015 hPa 0 mm - - -
1777304263 14.44° C 65% 1015 hPa 0 mm - - -
1777303123 15° C 69% 1014 hPa 0 mm - - -
1777303063 15° C 69% 1014 hPa 0 mm - - -
1777301922 14.44° C 67% 1015 hPa 0 mm - - -
1777301862 14.44° C 67% 1015 hPa 0 mm - - -
1777300722 14.44° C 68% 1015 hPa 0 mm - - -
1777300661 14.44° C 68% 1015 hPa 0 mm - - -
1777299521 13.33° C 77% 1014 hPa 0 mm - - -
1777299461 13.33° C 77% 1014 hPa 0 mm - - -
1777298321 13.33° C 74% 1015 hPa 0 mm - - -
1777298261 13.33° C 74% 1015 hPa 0 mm - - -
1777297120 11.11° C 84% 1015 hPa 0 mm - - -
1777297060 11.11° C 84% 1015 hPa 0 mm - - -
1777295920 11.11° C 84% 1014 hPa 0 mm - - -
1777295859 11.11° C 84% 1014 hPa 0 mm - - -
1777294719 12.22° C 84% 1015 hPa 0 mm - - -
1777294659 12.22° C 84% 1015 hPa 0 mm - - -
1777293519 8.33° C 74% 1015 hPa 0 mm - - -
1777293458 8.33° C 74% 1015 hPa 0 mm - - -

* Rain latest hour (hover to see other rain measurements)
** Current wind speed in m/s (hover to see current wind gust speed)